FW9372 Weather Reports


Display with metric or nautical units.
time (UTC)temp
F
wind
direction
speed
MPH
gust
MPH
rain 1hr
in
rain 24hr
in
rain mn
in
humidity
%
barometer
mb
20260504173100 75 237 3.0 12.0 0.00 0.12 0.09 53 1007.7
20260504171556 74 0 1.0 7.0 0.00 0.12 0.09 57 1007.6
20260504160108 70 0 4.0 14.0 0.00 0.12 0.09 61 1008.0
20260504150108 67 255 1.0 11.0 0.00 0.12 0.09 65 1008.4
20260504090107 48 0 0.0 0.0 0.00 0.12 0.08 97 1010.5
20260504081608 48 0 0.0 0.0 0.00 0.12 0.08 97 1008.6
20260504044605 50 0 0.0 0.0 0.01 0.02 0.02 88 1011.0
20260504043059 50 0 0.0 0.0 0.00 0.01 0.01 85 1011.1
20260504041557 50 0 0.0 0.0 0.00 0.01 0.01 84 1011.6
20260504040107 49 0 0.0 0.0 0.00 0.01 0.01 83 1011.2
20260504034625 50 0 0.0 0.0 0.00 0.01 0.01 82 1010.7
20260504033056 49 0 0.0 0.0 0.00 0.01 0.01 82 1011.0
20260504031557 49 0 0.0 0.0 0.00 0.01 0.01 82 1011.3
20260504030120 49 0 0.0 0.0 0.00 0.01 0.01 82 1011.3
20260504024601 49 0 0.0 0.0 0.00 0.01 0.01 81 1011.6
20260504023102 49 0 0.0 0.0 0.00 0.01 0.01 80 1011.6
20260504021558 50 0 0.0 0.0 0.00 0.01 0.01 77 1011.8
20260504020107 50 0 0.0 0.0 0.00 0.01 0.01 76 1011.7
20260504014604 51 0 0.0 0.0 0.00 0.01 0.01 73 1011.8
20260504013058 52 0 0.0 0.0 0.00 0.01 0.01 72 1011.8
20260504011556 54 0 0.0 0.0 0.00 0.01 0.01 68 1011.8
20260504010058 56 0 0.0 0.0 0.00 0.01 0.01 64 1011.7
20260504004558 58 0 0.0 0.0 0.00 0.01 0.01 60 1011.4
20260504003100 60 0 0.0 0.0 0.00 0.01 0.01 53 1010.9
20260504001606 62 0 0.0 0.0 0.00 0.01 0.01 50 1010.9
20260504000104 63 0 0.0 1.0 0.00 0.01 0.01 48 1011.0
20260503234602 64 197 0.0 10.0 0.00 0.01 0.01 47 1011.0
20260503233102 64 0 0.0 8.0 0.00 0.01 0.01 46 1011.2
20260503231557 65 221 1.0 12.0 0.00 0.01 0.01 45 1011.2
20260503230056 65 229 1.0 10.0 0.00 0.01 0.01 46 1011.4
20260503224557 65 255 1.0 9.0 0.00 0.01 0.01 46 1011.5
20260503223058 65 278 1.0 12.0 0.00 0.01 0.01 46 1011.9
20260503221559 66 0 0.0 8.0 0.00 0.01 0.01 45 1012.2
20260503220055 65 0 3.0 13.0 0.00 0.01 0.01 44 1012.4
20260503214602 65 0 3.0 12.0 0.00 0.01 0.01 45 1012.7
20260503213054 65 217 2.0 13.0 0.00 0.01 0.01 45 1013.0
20260503211556 65 259 2.0 13.0 0.00 0.01 0.01 46 1013.6
20260503210054 65 271 3.0 14.0 0.00 0.01 0.01 47 1013.3
20260503204559 65 228 1.0 11.0 0.00 0.01 0.01 47 1013.6
20260503203054 64 217 3.0 14.0 0.00 0.01 0.01 46 1014.0
20260503201557 64 246 1.0 13.0 0.00 0.01 0.01 44 1014.3
20260503200101 64 214 5.0 17.0 0.00 0.01 0.01 44 1014.7
20260503194600 63 0 0.0 13.0 0.00 0.01 0.01 46 1015.0
20260503193111 63 274 1.0 13.0 0.00 0.01 0.01 45 1015.2
20260503191559 63 0 0.0 10.0 0.00 0.01 0.01 45 1015.7
20260503190109 62 245 1.0 13.0 0.00 0.01 0.01 46 1015.9
20260503184601 63 226 4.0 10.0 0.00 0.01 0.01 45 1016.2
20260503183110 62 227 3.0 13.0 0.00 0.01 0.01 44 1016.3
20260503181558 62 212 2.0 11.0 0.00 0.01 0.01 44 1016.6
20260503174558 61 252 2.0 10.0 0.00 0.01 0.01 46 1017.1